This demonstration page uses our WeatherBlox Daily Observations layout. Learn more.

Left ArrowRight Arrow

39.92423, -83.80882

Hourly Observations for May 2, 2020

Temp ( °F °C ) Dew Point ( °F °C ) Humidity (%) Winds ( mph kmh ) Pressure ( in mb ) Visibility ( mi km ) Precip ( " mm )
12:56 am 00:56 Cloudy 55 12.8 47 8.3 74 74 SSE 7 11 30.06 1018 10 16.0934 0 0
1:56 am 01:56 Mostly Clear 54 12.2 48 8.9 80 80 S 3 6 30.08 1019 10 16.0934 0 0
2:56 am 02:56 Mostly Cloudy with Light Rain 54 12.2 48 8.9 80 80 S 5 7 30.06 1018 10 16.0934 0.001 0.001
3:56 am 03:56 Cloudy 52 11.1 48 8.9 86 86 SSE 8 13 30.05 1018 10 16.0934 0.001 0.001
4:56 am 04:56 Clear 51 10.6 48 8.9 89 89 S 3 6 30.06 1018 10 16.0934 0 0
5:56 am 05:56 Mostly Cloudy 51 10.6 48 8.9 89 89 S 5 7 30.07 1018 10 16.0934 0 0
6:56 am 06:56 Mostly Cloudy 52 11.1 48 8.9 86 86 S 7 11 30.08 1019 10 16.0934 0 0
7:56 am 07:56 Cloudy 53 11.7 48 8.9 83 83 S 8 13 30.08 1019 10 16.0934 0 0
8:56 am 08:56 Cloudy 55 12.8 49 9.4 80 80 S 9 15 30.07 1018 10 16.0934 0 0
9:56 am 09:56 Cloudy 58 14.4 49 9.4 72 72 S 10 17 30.06 1018 10 16.0934 0 0
10:56 am 10:56 Mostly Sunny 65 18.3 50 10 59 59 S 15 24 30.02 1017 10 16.0934 0 0
11:56 am 11:56 Sunny 70 21.1 51 10.6 51 51 SSW 16 26 29.99 1016 10 16.0934 0 0
12:56 pm 12:56 Sunny 73 22.8 54 12.2 51 51 SW 15 24 29.96 1015 10 16.0934 0 0
1:56 pm 13:56 Sunny 75 23.9 55 12.8 50 50 SW 20 31 29.93 1014 10 16.0934 0 0
2:56 pm 14:56 Sunny 77 25 56 13.3 48 48 SW 18 30 29.91 1013 10 16.0934 0 0
3:56 pm 15:56 Sunny 78 25.6 57 13.9 48 48 SSW 14 22 29.9 1012 10 16.0934 0 0
4:56 pm 16:56 Mostly Sunny 79 26.1 57 13.9 47 47 WSW 22 35 29.87 1011 10 16.0934 0 0
5:56 pm 17:56 Mostly Cloudy 79 26.1 58 14.4 49 49 WSW 21 33 29.87 1012 10 16.0934 0 0
6:56 pm 18:56 Cloudy 77 25 58 14.4 52 52 WSW 15 24 29.88 1012 10 16.0934 0 0
7:56 pm 19:56 Sunny 75 23.9 58 14.4 55 55 WSW 13 20 29.88 1012 10 16.0934 0 0
8:56 pm 20:56 Clear 73 22.8 58 14.4 59 59 WSW 14 22 29.88 1012 10 16.0934 0 0
9:56 pm 21:56 Clear 73 22.8 59 15 62 62 SW 12 19 29.88 1012 10 16.0934 0 0
10:56 pm 22:56 Clear 71 21.7 59 15 66 66 SW 12 19 29.9 1012 10 16.0934 0 0
11:56 pm 23:56 Mostly Clear 69 20.6 59 15 70 70 SW 9 15 29.89 1012 10 16.0934 0 0

Powered by AerisWeather